DW6064 Weather Reports


time (UTC)temp
C
wind
direction
speed
KPH
gust
KPH
rain 1hr
cm
rain 24hr
cm
rain mn
cm
humidity
%
barometer
mb
20260510130057 14 274 1.6 4.8 0.00 0.48 0.00 84 1012.8
20260510125530 14 274 1.6 4.8 0.00 0.48 0.00 85 1012.8
20260510125025 14 274 1.6 4.8 0.00 0.48 0.00 85 1012.8
20260510124539 13 274 0.0 4.8 0.00 0.48 0.00 85 1012.7
20260510124044 13 274 1.6 4.8 0.00 0.48 0.00 86 1012.6
20260510123544 13 274 0.0 3.2 0.00 0.48 0.00 86 1012.7
20260510123039 13 274 0.0 3.2 0.00 0.48 0.00 86 1012.6
20260510122533 13 274 1.6 1.6 0.00 0.48 0.00 86 1012.5
20260510122027 13 274 0.0 1.6 0.00 0.48 0.00 88 1012.4
20260510121603 13 274 0.0 1.6 0.00 0.48 0.00 88 1012.3
20260510121036 12 274 0.0 4.8 0.00 0.48 0.00 88 1012.4
20260510120527 12 274 1.6 4.8 0.00 0.48 0.00 88 1012.5
20260510120042 12 274 3.2 6.4 0.00 0.48 0.00 88 1012.5
20260510115535 12 274 1.6 6.4 0.00 0.51 0.00 88 1012.5
20260510115027 12 274 3.2 8.0 0.00 0.51 0.00 88 1012.6
20260510114543 12 249 3.2 11.3 0.00 0.51 0.00 88 1012.5
20260510114045 12 261 3.2 11.3 0.00 0.51 0.00 88 1012.5
20260510113534 12 246 4.8 11.3 0.00 0.51 0.00 88 1012.3
20260510113027 12 198 1.6 8.0 0.00 0.51 0.00 89 1012.1
20260510112605 12 238 3.2 8.0 0.00 0.51 0.00 89 1012.0
20260510112044 12 202 3.2 8.0 0.00 0.51 0.00 88 1011.9
20260510111541 12 209 1.6 8.0 0.00 0.51 0.00 88 1011.8
20260510111058 12 201 1.6 11.3 0.00 0.51 0.00 88 1011.7
20260510110555 12 236 3.2 11.3 0.00 0.51 0.00 88 1011.7
20260510110029 12 239 6.4 8.0 0.00 0.51 0.00 88 1011.7
20260510105550 12 245 4.8 6.4 0.00 0.51 0.00 87 1011.5
20260510105028 12 250 1.6 8.0 0.00 0.51 0.00 87 1011.3
20260510104601 12 243 3.2 8.0 0.00 0.51 0.00 87 1011.3
20260510104045 12 203 3.2 9.7 0.00 0.51 0.00 87 1011.1
20260510103539 12 160 6.4 11.3 0.00 0.51 0.00 87 1011.1
20260510103035 12 151 4.8 11.3 0.00 0.51 0.00 87 1011.2
20260510102525 12 150 6.4 12.9 0.00 0.51 0.00 87 1011.1
20260510102036 12 144 6.4 12.9 0.00 0.51 0.00 87 1011.1
20260510101530 12 157 8.0 14.5 0.00 0.51 0.00 87 1010.9
20260510101026 12 142 8.0 16.1 0.00 0.51 0.00 87 1010.9
20260510100543 12 163 8.0 17.7 0.00 0.51 0.00 87 1010.8
20260510100043 12 132 11.3 17.7 0.00 0.51 0.00 87 1010.7
20260510095601 12 155 12.9 17.7 0.00 0.51 0.00 87 1010.7
20260510095042 12 164 11.3 14.5 0.00 0.51 0.00 88 1010.8
20260510094600 12 144 8.0 14.5 0.00 0.51 0.00 88 1010.8
20260510094102 12 150 11.3 14.5 0.00 0.51 0.00 88 1010.7
20260510093600 12 132 6.4 11.3 0.00 0.51 0.00 89 1010.8
20260510093034 12 137 3.2 4.8 0.00 0.51 0.00 89 1010.9
20260510092525 12 107 3.2 4.8 0.00 0.51 0.00 89 1010.9
20260510092043 12 107 1.6 4.8 0.00 0.51 0.00 89 1010.9
20260510091532 12 107 1.6 6.4 0.00 0.51 0.00 89 1011.0
20260510091026 12 107 3.2 9.7 0.00 0.51 0.00 89 1011.0
20260510090543 12 78 3.2 9.7 0.00 0.51 0.00 89 1011.1
20260510090043 12 69 3.2 9.7 0.00 0.51 0.00 89 1011.2
20260510085600 12 83 6.4 9.7 0.00 0.51 0.00 89 1011.2
20260510085037 11 56 3.2 8.0 0.00 0.51 0.00 89 1011.3
20260510084553 11 48 3.2 14.5 0.00 0.51 0.00 89 1011.4
20260510084050 11 331 9.7 14.5 0.00 0.51 0.00 90 1011.7
20260510083525 11 341 4.8 19.3 0.00 0.51 0.00 90 1011.6
20260510083043 11 335 11.3 19.3 0.00 0.51 0.00 90 1011.5
20260510082542 11 326 12.9 20.9 0.00 0.51 0.00 90 1011.3
20260510082101 11 314 16.1 20.9 0.00 0.51 0.00 90 1011.1
20260510081531 11 252 3.2 6.4 0.00 0.51 0.00 90 1010.1
20260510081025 11 252 3.2 6.4 0.00 0.51 0.00 89 1010.0
20260510080541 11 252 4.8 6.4 0.00 0.51 0.00 89 1010.0
20260510080043 11 150 1.6 3.2 0.00 0.51 0.00 89 1009.8
20260510075542 11 150 1.6 4.8 0.00 0.51 0.00 89 1009.7
20260510075104 11 150 1.6 9.7 0.00 0.51 0.00 89 1009.7
20260510074540 11 150 3.2 12.9 0.00 0.51 0.00 89 1009.8
20260510074036 11 142 3.2 12.9 0.00 0.51 0.00 89 1009.7
20260510073552 11 142 6.4 11.3 0.00 0.51 0.00 90 1009.8
20260510073026 11 140 4.8 8.0 0.00 0.51 0.00 90 1009.9
20260510072542 11 144 6.4 8.0 0.00 0.51 0.00 90 1009.9
20260510072042 11 149 4.8 12.9 0.00 0.51 0.00 91 1009.8
20260510071538 11 144 8.0 12.9 0.00 0.51 0.00 91 1009.8
20260510071036 11 135 4.8 8.0 0.00 0.51 0.00 91 1009.7
20260510070529 11 124 3.2 4.8 0.00 0.51 0.00 91 1009.8
20260510070031 11 124 3.2 4.8 0.00 0.51 0.00 92 1009.9
20260510065546 11 124 3.2 4.8 0.00 0.51 0.00 91 1009.9
20260510065102 11 52 3.2 4.8 0.00 0.51 0.00 91 1010.0
20260510064542 11 52 3.2 4.8 0.00 0.51 0.00 91 1010.1
20260510064039 11 52 1.6 4.8 0.00 0.51 0.00 91 1010.1
20260510063531 11 52 1.6 4.8 0.00 0.51 0.00 91 1010.3
20260510063026 11 52 3.2 8.0 0.00 0.51 0.00 91 1010.5
20260510062542 11 42 3.2 8.0 0.00 0.51 0.00 91 1010.6
20260510062034 11 51 4.8 11.3 0.00 0.51 0.00 91 1010.5
20260510061526 11 30 4.8 11.3 0.00 0.51 0.00 91 1010.7
20260510061045 11 55 4.8 9.7 0.00 0.51 0.00 92 1010.7
20260510060543 11 51 3.2 8.0 0.00 0.51 0.00 92 1010.9
20260510055531 11 355 4.8 16.1 0.00 0.51 0.00 93 1010.9
20260510055027 10 50 6.4 30.6 0.00 0.51 0.00 93 1010.8
20260510054543 10 38 14.5 30.6 0.00 0.51 0.00 91 1011.0
20260510054038 10 61 1.6 8.0 0.00 0.51 0.00 90 1010.4
20260510053530 10 61 4.8 8.0 0.00 0.51 0.00 89 1010.3
20260510053026 10 61 4.8 6.4 0.00 0.51 0.00 88 1010.4
20260510052540 10 327 0.0 0.0 0.00 0.51 0.00 88 1010.5
20260510052039 10 327 0.0 0.0 0.00 0.51 0.00 88 1010.5
20260510051536 10 327 0.0 0.0 0.00 0.51 0.00 89 1010.3
20260510051031 10 327 0.0 1.6 0.00 0.51 0.00 89 1010.3
20260510050548 10 327 0.0 1.6 0.00 0.51 0.00 88 1010.4
20260510050104 10 327 0.0 0.0 0.00 0.51 0.00 89 1010.1
20260510045536 10 327 0.0 0.0 0.00 0.51 0.00 89 1010.1
20260510045056 10 327 0.0 0.0 0.00 0.51 0.00 89 1010.1
20260510044527 10 327 0.0 0.0 0.00 0.51 0.00 89 1010.0
20260510044041 10 327 0.0 0.0 0.00 0.51 0.00 89 1010.1
20260510043535 10 327 0.0 0.0 0.00 0.51 0.00 88 1010.1
20260510043026 10 327 0.0 0.0 0.00 0.51 0.00 88 1010.0
20260510042544 10 327 0.0 0.0 0.00 0.51 0.00 88 1009.9
20260510042034 10 327 0.0 0.0 0.00 0.51 0.00 88 1009.9
20260510041525 10 327 0.0 0.0 0.00 0.51 0.00 88 1009.9
20260510041045 10 327 0.0 0.0 0.00 0.51 0.00 88 1009.9
20260510040538 10 327 0.0 0.0 0.00 0.51 0.00 88 1009.8
20260510040057 11 327 0.0 0.0 0.00 0.51 0.00 88 1009.7
20260510035554 11 327 0.0 0.0 0.00 0.51 0.51 88 1009.7
20260510035027 11 327 0.0 0.0 0.00 0.51 0.51 89 1009.7
20260510034602 11 327 0.0 0.0 0.00 0.51 0.51 88 1009.7
20260510034041 11 327 0.0 0.0 0.00 0.51 0.51 88 1009.7
20260510033535 11 327 0.0 0.0 0.00 0.51 0.51 88 1009.8
20260510033055 11 327 0.0 0.0 0.00 0.51 0.51 88 1009.8
20260510032526 11 327 0.0 0.0 0.00 0.51 0.51 88 1009.9
20260510032044 11 327 0.0 0.0 0.00 0.51 0.51 87 1009.8
20260510031541 11 327 0.0 0.0 0.00 0.51 0.51 87 1009.9
20260510031031 11 327 0.0 0.0 0.00 0.51 0.51 87 1009.9
20260510030549 11 327 0.0 0.0 0.00 0.51 0.51 88 1009.9
20260510030050 11 327 0.0 0.0 0.00 0.51 0.51 88 1009.9
20260510025525 11 327 0.0 0.0 0.00 0.51 0.51 88 1009.9
20260510025054 11 327 0.0 0.0 0.00 0.51 0.51 88 1010.0
20260510024529 11 327 0.0 0.0 0.00 0.51 0.51 88 1009.9
20260510023543 11 327 0.0 0.0 0.00 0.51 0.51 88 1010.0
20260510023042 12 327 0.0 0.0 0.00 0.51 0.51 87 1009.8
20260510022540 12 327 0.0 0.0 0.00 0.51 0.51 87 1009.9
20260510022041 12 327 0.0 0.0 0.00 0.51 0.51 86 1009.9
20260510021541 12 327 0.0 0.0 0.00 0.51 0.51 86 1009.9
20260510021101 12 327 0.0 0.0 0.00 0.51 0.51 86 1009.9
20260510020558 12 327 0.0 0.0 0.00 0.51 0.51 86 1009.8
20260510020054 12 327 0.0 0.0 0.00 0.51 0.51 86 1009.8
20260510015527 12 327 0.0 0.0 0.00 0.51 0.51 86 1009.7
20260510015044 12 327 0.0 0.0 0.00 0.51 0.51 86 1009.6
20260510014540 12 327 0.0 0.0 0.00 0.51 0.51 86 1009.4
20260510014057 12 327 0.0 0.0 0.00 0.51 0.51 85 1009.3
20260510013526 13 327 0.0 0.0 0.00 0.51 0.51 85 1009.2
20260510013105 13 327 0.0 0.0 0.00 0.51 0.51 84 1009.1
20260510012535 13 327 0.0 0.0 0.00 0.51 0.51 84 1009.0
20260510012055 13 327 0.0 0.0 0.00 0.51 0.51 84 1008.9
20260510011527 13 327 0.0 0.0 0.00 0.51 0.51 83 1009.1
20260510011104 13 327 0.0 0.0 0.00 0.51 0.51 83 1009.1
20260510010535 13 327 0.0 0.0 0.00 0.51 0.51 83 1009.0
20260510010026 13 327 0.0 0.0 0.00 0.51 0.51 82 1008.9
20260510005543 13 327 0.0 0.0 0.00 0.51 0.51 82 1008.8
20260510005043 13 327 0.0 1.6 0.00 0.51 0.51 82 1008.7
20260510004540 14 327 0.0 3.2 0.00 0.51 0.51 82 1008.6
20260510004040 14 327 1.6 3.2 0.00 0.51 0.51 81 1008.5
20260510003537 14 327 0.0 0.0 0.00 0.51 0.51 80 1008.4
20260510003055 15 327 0.0 0.0 0.00 0.51 0.51 80 1008.4
20260510002527 15 327 0.0 0.0 0.00 0.51 0.51 80 1008.4
20260510002045 15 327 0.0 0.0 0.00 0.51 0.51 79 1008.5
20260510001543 15 327 0.0 1.6 0.00 0.51 0.51 79 1008.4
20260510001044 15 327 0.0 3.2 0.00 0.51 0.51 78 1008.4
20260510000542 15 327 1.6 3.2 0.00 0.51 0.51 78 1008.4
20260510000037 15 327 1.6 3.2 0.00 0.51 0.51 77 1008.4
20260509235529 16 327 0.0 0.0 0.00 0.51 0.51 76 1008.4
20260509235049 16 327 0.0 1.6 0.00 0.51 0.51 76 1008.3
20260509234543 16 327 0.0 1.6 0.00 0.51 0.51 75 1008.2
20260509234037 16 327 1.6 1.6 0.00 0.51 0.51 76 1008.2
20260509233527 16 327 0.0 1.6 0.00 0.51 0.51 75 1008.1
20260509233046 16 327 0.0 3.2 0.00 0.51 0.51 75 1008.2
20260509232601 16 327 1.6 4.8 0.00 0.51 0.51 75 1008.3
20260509232035 16 327 1.6 4.8 0.00 0.51 0.51 75 1008.1
20260509231527 16 327 1.6 4.8 0.00 0.51 0.51 74 1008.3
20260509231044 16 327 3.2 6.4 0.00 0.51 0.51 74 1008.3
20260509230602 16 327 3.2 8.0 0.00 0.51 0.51 74 1008.4
20260509230036 16 316 4.8 8.0 0.00 0.51 0.51 75 1008.4
20260509225528 17 317 3.2 6.4 0.00 0.51 0.51 74 1008.4
20260509225046 17 300 1.6 8.0 0.00 0.51 0.51 74 1008.4
20260509224537 17 295 4.8 8.0 0.00 0.51 0.51 75 1008.4
20260509224059 17 296 4.8 6.4 0.00 0.51 0.51 75 1008.4
20260509223531 16 46 1.6 3.2 0.00 0.51 0.51 74 1008.4
20260509223026 16 46 0.0 3.2 0.00 0.51 0.51 74 1008.3
20260509222536 16 46 0.0 4.8 0.00 0.51 0.51 74 1008.3
20260509222036 16 46 3.2 4.8 0.00 0.51 0.51 76 1008.3
20260509221528 16 46 1.6 4.8 0.00 0.51 0.51 75 1008.3
20260509221044 16 44 1.6 4.8 0.00 0.51 0.51 74 1008.4
20260509220538 16 44 1.6 4.8 0.00 0.51 0.51 75 1008.4
20260509220032 16 14 0.0 6.4 0.00 0.51 0.51 75 1008.5
20260509215524 16 14 3.2 6.4 0.00 0.51 0.51 76 1008.5
20260509215037 16 33 1.6 8.0 0.00 0.51 0.51 76 1008.5
20260509214532 16 360 4.8 8.0 0.00 0.51 0.51 75 1008.5
20260509214027 16 348 6.4 8.0 0.00 0.51 0.51 75 1008.6
20260509213543 16 28 1.6 9.7 0.00 0.51 0.51 76 1008.6
20260509213037 16 21 3.2 9.7 0.00 0.51 0.51 75 1008.6
20260509212526 16 24 3.2 8.0 0.00 0.51 0.51 75 1008.7
20260509212044 16 38 3.2 9.7 0.00 0.51 0.51 76 1008.6
20260509211537 16 9 4.8 9.7 0.00 0.51 0.51 76 1008.7
20260509211034 16 16 3.2 8.0 0.00 0.51 0.51 77 1008.7
20260509210528 16 5 3.2 8.0 0.00 0.51 0.51 76 1008.8
20260509210048 16 360 3.2 12.9 0.00 0.51 0.51 79 1008.9
20260509205544 16 46 4.8 12.9 0.00 0.51 0.51 78 1009.0
20260509205039 16 58 3.2 8.0 0.00 0.51 0.51 79 1009.0
20260509204542 16 13 4.8 9.7 0.00 0.51 0.51 78 1009.0
20260509204043 16 26 3.2 14.5 0.00 0.51 0.51 78 1009.0
20260509203536 16 11 6.4 14.5 0.00 0.51 0.51 78 1009.2
20260509203032 16 351 3.2 8.0 0.00 0.51 0.51 77 1009.2
20260509202525 16 34 1.6 8.0 0.00 0.51 0.51 76 1009.2
20260509202044 16 355 3.2 9.7 0.00 0.51 0.51 75 1009.2
20260509201602 16 321 6.4 9.7 0.00 0.51 0.51 74 1009.1
20260509201037 16 338 4.8 12.9 0.00 0.51 0.51 75 1009.2
20260509200527 16 317 4.8 12.9 0.00 0.51 0.51 73 1009.2
20260509200042 16 332 4.8 12.9 0.00 0.51 0.51 74 1009.3
20260509195541 16 317 4.8 9.7 0.00 0.51 0.51 74 1009.4
20260509195042 16 329 6.4 14.5 0.00 0.51 0.51 73 1009.3
20260509194540 16 328 6.4 14.5 0.00 0.51 0.51 73 1009.4
20260509194101 16 290 6.4 14.5 0.00 0.51 0.51 71 1009.4
20260509193540 17 287 9.7 14.5 0.00 0.51 0.51 71 1009.5
20260509193102 17 287 8.0 11.3 0.00 0.51 0.51 69 1009.2
20260509192536 17 200 3.2 4.8 0.00 0.51 0.51 69 1009.1
20260509192029 17 200 3.2 4.8 0.00 0.51 0.51 69 1009.0
20260509191525 17 128 1.6 6.4 0.00 0.51 0.51 69 1009.0
20260509191101 17 128 1.6 6.4 0.00 0.51 0.51 70 1009.0
20260509190557 17 146 3.2 6.4 0.00 0.51 0.51 73 1008.9
20260509190035 17 289 1.6 3.2 0.00 0.51 0.51 73 1008.9
20260509185526 16 289 0.0 3.2 0.00 0.51 0.51 72 1009.1
20260509185047 16 267 0.0 8.0 0.00 0.51 0.51 75 1009.3
20260509184538 16 251 3.2 8.0 0.00 0.51 0.51 76 1009.1
20260509184101 16 192 4.8 8.0 0.00 0.51 0.51 75 1009.5
20260509183530 16 217 1.6 9.7 0.00 0.51 0.51 78 1009.6
20260509183026 15 198 6.4 9.7 0.00 0.51 0.51 78 1009.7
20260509182534 15 309 3.2 6.4 0.00 0.51 0.51 80 1009.6
20260509182031 15 265 3.2 6.4 0.00 0.51 0.51 80 1009.9
20260509181524 15 225 0.0 6.4 0.00 0.51 0.51 80 1009.8
20260509181042 15 195 1.6 4.8 0.00 0.51 0.51 81 1010.0
20260509180540 15 237 0.0 11.3 0.00 0.51 0.51 81 1009.9
20260509180034 14 163 4.8 11.3 0.00 0.51 0.51 81 1009.9
20260509175526 14 194 8.0 11.3 0.00 0.51 0.51 81 1010.0
20260509175042 14 155 6.4 12.9 0.00 0.51 0.51 82 1010.0
20260509174534 15 144 9.7 12.9 0.00 0.51 0.51 83 1010.0
20260509174057 14 188 1.6 8.0 0.00 0.51 0.51 85 1010.0
20260509173529 14 146 6.4 8.0 0.00 0.51 0.51 86 1010.1
20260509173025 14 155 4.8 8.0 0.00 0.51 0.51 85 1010.1
20260509172543 14 138 0.0 6.4 0.00 0.51 0.51 87 1010.0
20260509172105 13 138 1.6 8.0 0.00 0.51 0.51 88 1010.0
20260509171538 13 123 3.2 11.3 0.00 0.51 0.51 88 1010.2
20260509171042 13 140 6.4 11.3 0.00 0.51 0.51 88 1010.4
20260509170541 13 143 6.4 11.3 0.00 0.51 0.51 88 1010.4
20260509170041 13 125 6.4 11.3 0.00 0.51 0.51 88 1010.5
20260509165533 13 144 4.8 11.3 0.00 0.51 0.51 89 1010.7
20260509165054 13 127 6.4 11.3 0.00 0.51 0.51 88 1010.7
20260509164525 13 140 6.4 11.3 0.00 0.51 0.51 88 1010.9
20260509164044 13 142 6.4 11.3 0.00 0.51 0.51 88 1010.8
20260509163536 13 157 6.4 11.3 0.00 0.51 0.51 88 1010.7
20260509163057 13 146 6.4 11.3 0.00 0.51 0.51 87 1010.7
20260509162530 13 168 8.0 11.3 0.00 0.51 0.51 88 1010.7
20260509162047 13 146 6.4 9.7 0.00 0.51 0.51 88 1010.7
20260509161544 13 121 6.4 9.7 0.03 0.51 0.51 88 1010.5
20260509161045 13 130 4.8 6.4 0.03 0.51 0.51 89 1010.5
20260509160544 13 46 1.6 4.8 0.05 0.51 0.51 90 1010.5
20260509160104 12 355 1.6 4.8 0.05 0.51 0.51 89 1010.4
20260509155540 12 318 0.0 4.8 0.08 0.51 0.51 89 1010.4
20260509155041 12 318 1.6 4.8 0.10 0.51 0.51 90 1010.3
20260509154535 12 85 0.0 4.8 0.13 0.51 0.51 90 1010.2
20260509154026 12 85 3.2 6.4 0.15 0.51 0.51 90 1010.1
20260509153524 12 85 3.2 6.4 0.18 0.51 0.51 91 1010.2
20260509153044 12 57 1.6 6.4 0.20 0.51 0.51 90 1010.1
20260509152544 12 5 0.0 4.8 0.23 0.51 0.51 90 1010.3
20260509152043 12 355 3.2 4.8 0.25 0.51 0.51 90 1010.3
20260509151540 12 360 1.6 8.0 0.28 0.48 0.48 90 1010.4
20260509151042 12 5 0.0 8.0 0.30 0.48 0.48 88 1010.6
20260509150537 12 13 3.2 4.8 0.30 0.46 0.46 88 1010.7
20260509150033 12 294 1.6 12.9 0.33 0.46 0.46 88 1010.9
20260509145527 12 294 1.6 12.9 0.30 0.43 0.43 87 1011.0
20260509145104 12 279 4.8 11.3 0.30 0.41 0.41 86 1011.1
20260509144540 12 103 1.6 4.8 0.28 0.38 0.38 87 1011.2
20260509144034 12 156 1.6 4.8 0.28 0.36 0.36 86 1011.3
20260509143527 12 156 3.2 4.8 0.25 0.33 0.33 87 1011.3
20260509143050 12 156 3.2 4.8 0.25 0.30 0.30 87 1011.3
20260509142524 12 156 1.6 8.0 0.23 0.28 0.28 86 1011.1
20260509142103 12 156 3.2 8.0 0.23 0.25 0.25 86 1011.1
20260509141542 12 156 4.8 8.0 0.18 0.20 0.20 85 1011.0
20260509141104 12 161 6.4 8.0 0.15 0.18 0.18 84 1011.0
20260509140538 12 147 4.8 6.4 0.13 0.15 0.15 84 1010.9
20260509140036 12 147 4.8 6.4 0.10 0.13 0.13 83 1010.8
20260509135536 13 140 3.2 6.4 0.10 0.13 0.13 83 1010.8
20260509135031 13 132 3.2 8.0 0.08 0.10 0.10 82 1010.7
20260509134548 13 125 4.8 11.3 0.08 0.10 0.10 82 1010.7
20260509134047 13 144 6.4 11.3 0.05 0.08 0.08 82 1010.7
20260509133544 13 134 6.4 11.3 0.05 0.08 0.08 82 1010.7
20260509133044 13 134 6.4 11.3 0.03 0.05 0.05 82 1010.7
20260509132544 13 139 6.4 12.9 0.03 0.05 0.05 81 1010.8
20260509132041 13 147 8.0 12.9 0.00 0.03 0.03 80 1010.7
20260509131535 13 131 6.4 8.0 0.00 0.03 0.03 80 1010.7
20260509131026 13 133 4.8 8.0 0.00 0.03 0.03 78 1010.6
20260509130539 13 161 4.8 8.0 0.00 0.03 0.03 78 1010.7